Terminal Aerodrome Forecast
Issued by NWS

Home | Current Version | Previous Version | Text Only | Print | Product List | Glossary On
Versions: 1 2 3 4 5 6 7 8 9 10 11 12
000
FTUS41 KBTV 282300
TAFMSS
TAF
KMSS 282331Z 2900/2924 31006KT P6SM BKN070
     FM290200 31004KT P6SM SCT070
     FM290600 00000KT P6SM SKC
     FM291400 VRB03KT P6SM SKC=

USA.gov is the U.S. government's official web portal to all federal, state and local government web resources and services.